Regional Weather Roundup
Issued by NWS Mt. Holly, NJ

Home | Current Version | Previous Version | Text Only | Print | Product List | Glossary On
Versions: 1 2 3 4 5 6 7 8 9 10 11 12 13 14 15 16 17 18 19 20 21 22 23 24 25 26 27 28 29 30 31 32 33 34 35 36 37 38 39 40 41 42 43 44 45 46 47 48 49 50
000
ASUS41 KPHI 130510
RWRPHI

REGIONAL WEATHER ROUNDUP
NATIONAL WEATHER SERVICE MOUNT HOLLY NJ
100 AM EDT SUN JUL 13 2014

NOTE:  "FAIR" INDICATES FEW OR NO CLOUDS BELOW 12,000 FEET WITH NO
SIGNIFICANT WEATHER AND/OR OBSTRUCTIONS TO VISIBILITY.

 * = STATION DOES NOT REPORT PRECIPITATION (E.G. RAIN, SNOW, ETC.)
        OR FOG.

NJZ015>026-130600-
SOUTHERN NEW JERSEY

CITY           SKY/WX    TMP DP  RH WIND       PRES   REMARKS
POMONA         MOCLDY    71  69  93 S6        30.15F
RIO GRANDE*    CLEAR     72  66  83 S9        30.16F
MILLVILLE      PTCLDY    71  69  93 VRB3      30.15S
MOUNT HOLLY    CLOUDY    70  67  90 VRB3      30.14S
TRENTON        PTCLDY    70  66  87 S7        30.13S

$$
NJZ001>014-130600-
NORTHERN NEW JERSEY

CITY           SKY/WX    TMP DP  RH WIND       PRES   REMARKS
SUSSEX         MOCLDY    69  66  90 CALM      30.11F FOG
ANDOVER*         N/A     71  63  75 VRB3      30.13F
MORRISTOWN     MOCLDY    72  61  68 CALM      30.13S
NEWARK         MOCLDY    73  64  73 S10       30.12F
TETERBORO      PTCLDY    76  59  55 S7        30.11F
CALDWELL       PTCLDY    73  60  63 SW3       30.13S
SOMERVILLE     MOCLDY    71  63  75 S5        30.11F
ALLAIRE*       PTCLDY    70  64  83 SW7       30.14F
TOMS RIVER*    PTCLDY    70  68  94 S3        30.15S

$$
PAZ043-044-047-054-055-060>062-066>071-130600-
EASTERN PENNSYLVANIA

CITY           SKY/WX    TMP DP  RH WIND       PRES   REMARKS
PHILADELPHIA   MOCLDY    73  66  78 S8        30.14S
NORTH PHILA    PTCLDY    74  65  73 VRB6      30.15S
BLUE BELL      MOCLDY    72  68  88 S3        30.13F
DOYLESTOWN     CLOUDY    71  64  78 S5        30.12F
QUAKERTOWN*    MOCLDY    73  66  78 S6        30.14F
POTTSTOWN      CLOUDY    72  67  84 VRB3      30.14F
LANCASTER      PTCLDY    71  67  87 S5        30.11F
COATESVILLE    CLEAR     70  70 100 S3        30.14F
READING        PTCLDY    74  68  81 SE7       30.10F
ALLENTOWN      CLOUDY    75  66  73 SW6       30.12F
MOUNT POCONO   MOCLDY    68  64  87 SW5       30.16F
HAZLETON       PTCLDY    70  68  94 S5        30.16F
WILKES BARRE   MOCLDY    73  66  78 SW8       30.10F

$$
DEZALL-MDZ008-012-015-019-020-130600-
DELAWARE AND EASTERN MARYLAND

CITY           SKY/WX    TMP DP  RH WIND       PRES   REMARKS
WILMINGTON     MOCLDY    74  67  78 S10       30.14F
GEORGETOWN     CLEAR     70  67  90 S12       30.16S
EASTON         CLEAR     73  73 100 S6        30.17F
PATUXENT       CLEAR     73  69  87 SE5       30.13F
OCEAN CITY     CLEAR     72  69  90 SW6       30.16S
WALLOPS ISLAND PTCLDY    73  70  90 S8        30.16F
SALISBURY      CLEAR     70  66  87 CALM      30.15F

$$
PAZ001-021-NYZ056-072-MDZ011-DCZ001-130600-
OTHER NEARBY LOCATIONS

CITY           SKY/WX    TMP DP  RH WIND       PRES   REMARKS
HARRISBURG     MOCLDY    76  66  71 S7        30.09F
STATE COLLEGE  MOCLDY    71  64  79 CALM      30.09F
WILLIAMSPORT   CLOUDY    76  66  71 CALM      30.05F
BINGHAMTON     CLOUDY    71  64  78 S10       30.09F
NEW YORK CITY  PTCLDY    74  58  57 VRB3      30.15F
BALTIMORE      MOCLDY    74  68  81 S6        30.12S
WASHINGTON DC  MOCLDY    78  68  71 S12       30.12F

$$


USA.gov is the U.S. government's official web portal to all federal, state and local government web resources and services.